Total_Precipitation_Accumulation
2.70 3.09 2.90 2.52 2.50 2.57 2.76 3.09 3.35 2.95 2.60 2.51 2.53 2.60 2.70 2.71 2.86 2.61 2.38 2.29 2.02 1.80 1.73 1.71 1.70 1.65 1.63 1.64 1.71 1.87 2.06 2.20 2.41 2.69 3.01 3.41 3.80 4.17
2.74 2.83 2.77 2.53 2.57 2.64 2.81 3.02 3.29 3.23 2.80 2.53 2.73 2.77 2.65 2.44 2.73 2.60 2.34 2.25 1.97 1.77 1.60 1.56 1.60 1.66 1.69 1.69 1.65 1.68 1.73 1.79 1.83 1.91 2.02 2.16 2.43 2.86
2.71 2.67 2.63 2.82 2.87 2.71 2.86 2.96 3.18 3.39 3.14 2.71 2.81 2.81 2.71 2.49 2.46 2.40 2.29 2.25 2.04 1.98 1.73 1.61 1.53 1.52 1.53 1.57 1.65 1.70 1.68 1.65 1.61 1.62 1.68 1.76 1.82 1.94
2.73 2.93 2.86 3.01 3.02 2.97 3.15 3.13 3.21 3.44 3.34 3.02 2.90 2.95 2.83 2.68 2.59 2.37 2.04 1.95 1.95 2.13 1.94 1.74 1.62 1.56 1.50 1.47 1.45 1.43 1.43 1.46 1.47 1.42 1.44 1.48 1.54 1.66
2.51 2.79 3.08 3.52 3.37 3.20 3.08 2.99 3.02 3.08 3.30 3.05 2.81 3.01 2.85 2.74 2.69 2.35 2.09 2.03 1.71 1.80 1.84 1.69 1.53 1.39 1.32 1.30 1.28 1.26 1.22 1.24 1.28 1.33 1.38 1.41 1.44 1.49
2.37 2.48 2.64 2.93 3.09 3.24 3.02 2.90 2.95 3.03 3.17 3.11 3.05 3.26 3.29 3.13 2.93 2.54 2.36 2.21 1.95 1.64 1.69 1.59 1.48 1.38 1.30 1.25 1.22 1.21 1.22 1.24 1.30 1.34 1.39 1.48 1.53 1.57
2.43 2.36 2.20 2.33 2.52 2.72 2.58 2.88 3.07 3.04 3.11 3.17 3.28 3.64 3.63 3.42 2.90 2.64 2.53 2.41 2.15 1.79 1.72 1.52 1.42 1.31 1.28 1.31 1.27 1.22 1.19 1.19 1.21 1.25 1.30 1.37 1.44 1.53
2.54 2.49 2.31 2.14 2.11 2.24 2.31 2.53 2.80 2.85 2.94 3.09 3.17 3.37 3.42 3.36 3.13 2.85 2.62 2.46 2.17 1.90 1.89 1.74 1.57 1.47 1.35 1.26 1.37 1.37 1.32 1.29 1.24 1.21 1.19 1.21 1.25 1.29
2.70 2.77 2.33 1.94 2.14 2.10 2.19 2.21 2.15 2.31 2.52 2.74 2.89 2.95 3.27 3.39 3.40 2.97 2.79 2.60 2.25 2.08 2.12 1.93 1.81 1.63 1.41 1.33 1.45 1.33 1.32 1.32 1.26 1.20 1.15 1.10 1.10 1.15
2.34 2.36 2.33 2.15 2.08 2.11 2.09 1.96 1.82 1.83 1.96 2.03 2.13 2.42 2.79 3.27 3.57 3.30 3.17 2.97 2.61 2.29 2.10 1.96 1.84 1.71 1.51 1.43 1.49 1.35 1.26 1.24 1.22 1.15 1.11 1.10 1.08 1.10
2.06 2.07 2.10 1.97 2.04 2.01 1.91 1.86 1.79 1.68 1.69 1.77 1.76 1.89 2.21 2.62 3.11 3.32 3.06 2.71 2.40 2.10 2.01 1.89 1.72 1.80 1.76 1.62 1.54 1.58 1.37 1.27 1.22 1.19 1.17 1.16 1.16 1.20
2.28 2.25 2.20 2.03 2.01 1.90 1.74 1.75 1.62 1.51 1.62 1.61 1.54 1.55 1.67 2.01 2.52 2.68 2.79 2.63 2.34 2.08 1.78 1.80 1.74 1.87 1.90 1.64 1.48 1.48 1.43 1.42 1.35 1.26 1.24 1.26 1.32 1.17
2.36 2.40 2.35 2.25 1.94 1.78 1.64 1.56 1.55 1.68 1.76 1.75 1.70 1.71 1.85 2.04 2.20 2.44 2.67 2.72 2.50 2.12 1.88 1.94 1.85 1.92 1.96 1.73 1.58 1.52 1.43 1.40 1.39 1.37 1.35 1.33 1.32 1.21
2.25 2.37 2.42 2.33 2.05 1.90 1.74 1.61 1.66 1.63 1.64 1.75 1.74 1.70 1.74 1.85 2.04 2.33 2.60 2.66 2.54 2.30 2.20 2.21 2.08 2.01 2.03 1.88 1.66 1.59 1.57 1.49 1.44 1.38 1.35 1.50 1.43 1.38
1.97 2.33 2.46 2.31 2.08 1.81 1.72 1.72 1.64 1.51 1.54 1.58 1.51 1.47 1.53 1.67 1.87 2.16 2.50 2.70 2.62 2.38 2.23 2.16 2.14 2.23 2.27 2.04 1.77 1.63 1.63 1.58 1.45 1.40 1.35 1.33 1.27 1.29
1.69 1.92 2.04 2.01 1.82 1.68 1.60 1.51 1.42 1.43 1.42 1.41 1.43 1.50 1.61 1.66 1.71 1.85 2.23 2.57 2.68 2.45 2.26 2.21 2.21 2.34 2.31 2.16 2.05 1.79 1.62 1.55 1.45 1.41 1.42 1.37 1.32 1.28
1.72 1.73 1.82 1.92 1.90 1.83 1.81 1.73 1.65 1.58 1.49 1.44 1.53 1.58 1.70 1.80 1.84 1.95 2.21 2.42 2.39 2.18 2.12 2.22 2.32 2.40 2.37 2.35 2.22 1.89 1.73 1.61 1.56 1.62 1.66 1.55 1.42 1.37
1.47 1.50 1.69 1.88 2.01 2.02 2.06 2.03 1.93 1.84 1.77 1.77 1.80 1.79 1.78 1.84 1.90 1.95 2.15 2.35 2.35 2.21 2.11 2.07 2.27 2.48 2.46 2.26 2.05 1.90 1.77 1.63 1.61 1.71 1.76 1.69 1.52 1.41
1.28 1.40 1.57 1.71 1.90 2.06 2.12 2.09 2.00 2.01 2.09 2.08 2.03 2.01 2.00 2.01 2.06 2.05 2.07 2.23 2.30 2.25 2.24 2.25 2.31 2.38 2.33 1.99 1.74 1.70 1.78 1.78 1.84 1.85 1.77 1.64 1.48 1.43
1.33 1.51 1.69 1.83 1.96 2.15 2.20 2.17 2.18 2.17 2.20 2.18 2.19 2.17 2.16 2.15 2.15 2.11 2.05 2.04 2.16 2.24 2.27 2.27 2.22 2.14 2.07 1.99 1.90 1.82 1.79 1.85 1.90 1.84 1.78 1.79 1.70 1.68
1.62 1.68 1.77 1.88 2.02 2.17 2.32 2.39 2.41 2.37 2.33 2.29 2.25 2.28 2.32 2.31 2.18 2.11 2.16 2.18 2.15 2.17 2.09 1.94 1.98 2.30 2.43 2.47 2.26 1.91 1.80 1.91 1.96 1.94 1.96 2.09 1.95 1.81
1.67 1.72 1.76 1.80 1.96 2.09 2.19 2.25 2.29 2.27 2.27 2.31 2.26 2.25 2.27 2.29 2.21 2.19 2.26 2.26 2.13 2.03 1.98 1.98 2.18 2.41 2.49 2.48 2.20 1.99 1.92 1.97 2.04 2.08 2.05 2.02 1.92 1.74
1.56 1.56 1.61 1.68 1.80 1.96 2.04 2.12 2.20 2.18 2.14 2.17 2.25 2.26 2.18 2.19 2.18 2.19 2.22 2.29 2.24 2.16 2.21 2.25 2.28 2.32 2.31 2.33 2.30 2.15 2.03 2.07 2.06 1.97 1.80 1.73 1.65 1.55